Home   Weather   Grenoble   Past weeks

Flag for France Past Weather in Grenoble, Rhône-Alpes, France — Yesterday and Last 2 Weeks

Now
52 °F

Sunny.


Feels Like: 51 °F
Forecast: 48 / 81 °F
Wind: 3 mph from North

Location: Grenoble / St. Geoirs

Current Time: Aug 20, 2017 at 8:13:42 am

Latest Report: Aug 20, 2017 at 7:30 am


Visibility: 10 mi

Pressure: 30.21 "Hg

Humidity: 77%

Dew Point: 45 °F

Location of GrenobleLocation

Past Weather in Grenoble — Graph

°F

Grenoble Temperature Yesterday

Maximum temperature yesterday: 72 °F (at 4:30 pm)
Minimum temperature yesterday: 59 °F (at 7:00 am)
Average temperature yesterday: 65 °F

High & Low Weather Summary for the Past Weeks

 TemperatureHumidityPressure
High90 °F (Aug 5, 4:00 pm)100% (Aug 9, 4:00 am)30.21 "Hg (Aug 9, 4:00 am)
Low50 °F (Aug 7, 5:30 am)18% (Aug 7, 7:00 pm)29.89 "Hg (Aug 8, 3:00 am)
Average67 °F66%30.10 "Hg
* Reported Aug 5 7:00 am — Aug 20 7:00 am, Grenoble. Weather by CustomWeather, © 2017

Note: Actual official high and low records may vary slightly from our data, if they occured in-between our weather recording intervals... More about our weather records

Advertising

Grenoble Weather History for the Previous 24 Hours

Scroll right to see more
 ConditionsComfort  
Time TempWeatherWind HumidityBarometerVisibility
7:00 am
Sun, Aug 20
52 °FPassing clouds.2 mph77%30.21 "HgN/A
6:30 am54 °FPassing clouds.5 mph72%30.21 "HgN/A
6:00 am52 °FPassing clouds.3 mph77%30.21 "HgN/A
5:30 am54 °FPassing clouds.5 mph72%30.21 "HgN/A
5:00 am52 °FClear.7 mph77%30.21 "Hg10 mi
4:30 am52 °FClear.3 mph77%30.21 "Hg10 mi
4:00 am52 °FClear.No wind77%30.21 "Hg10 mi
3:30 am54 °FPassing clouds.5 mph72%30.21 "HgN/A
3:00 am55 °FPassing clouds.8 mph67%30.21 "HgN/A
2:00 am57 °FClear.12 mph63%30.21 "Hg10 mi
1:30 am59 °FPassing clouds.14 mph59%30.21 "HgN/A
1:00 am59 °FPassing clouds.13 mph59%30.21 "HgN/A
12:30 am59 °FPassing clouds.13 mph59%30.21 "HgN/A
12:00 am61 °FPassing clouds.13 mph55%30.21 "HgN/A
11:30 pm
Sat, Aug 19
61 °FPassing clouds.14 mph55%30.21 "HgN/A
11:00 pm61 °FPassing clouds.12 mph55%30.21 "HgN/A
10:30 pm63 °FPassing clouds.10 mph52%30.21 "HgN/A
10:00 pm63 °FPassing clouds.8 mph56%30.21 "HgN/A
9:30 pm61 °FPassing clouds.3 mph59%30.18 "HgN/A
9:00 pm63 °FClear.7 mph56%30.18 "Hg10 mi
8:30 pm64 °FPassing clouds.7 mph52%30.18 "HgN/A
8:00 pm66 °FPassing clouds.5 mph49%30.15 "HgN/A
7:30 pm68 °FSunny.8 mph46%30.15 "Hg10 mi
7:00 pm70 °FPassing clouds.9 mph43%30.15 "HgN/A
6:30 pm70 °FPassing clouds.10 mph43%30.15 "HgN/A
6:00 pm70 °FPassing clouds.9 mph43%30.15 "HgN/A
5:30 pm72 °FPassing clouds.9 mph44%30.15 "HgN/A
5:00 pm72 °FPassing clouds.7 mph41%30.15 "HgN/A
4:30 pm72 °FPassing clouds.8 mph41%30.15 "HgN/A
4:00 pm70 °FPassing clouds.8 mph46%30.15 "HgN/A
3:30 pm70 °FPassing clouds.9 mph50%30.15 "HgN/A
3:00 pm70 °FPartly sunny.8 mph50%30.15 "HgN/A
2:30 pm70 °FPartly sunny.9 mph53%30.18 "HgN/A
2:00 pm70 °FPartly sunny.10 mph57%30.15 "HgN/A
1:30 pm70 °FPassing clouds.9 mph53%30.15 "HgN/A
1:00 pm68 °FScattered clouds.13 mph56%30.15 "HgN/A
12:30 pm68 °FBroken clouds.10 mph56%30.15 "HgN/A
12:00 pm68 °FScattered clouds.10 mph56%30.18 "HgN/A
11:30 am66 °FPartly sunny.10 mph64%30.18 "HgN/A
11:00 am66 °FPartly sunny.10 mph64%30.18 "HgN/A
10:30 am66 °FPartly sunny.6 mph73%30.18 "HgN/A
10:00 am64 °FScattered clouds.9 mph68%30.18 "HgN/A
9:30 am63 °FPartly sunny.7 mph77%30.18 "HgN/A
9:00 am63 °FMore clouds than sun.1 mph77%30.18 "HgN/A
8:30 am61 °FPartly sunny.5 mph83%30.15 "HgN/A
8:00 am61 °FPartly sunny.5 mph83%30.15 "HgN/A
Weather by CustomWeather, © 2017

See weather overviewHow to use our weather pages